Regional Weather Roundup
Issued by NWS

Home | Current Version | Previous Version | Text Only | Print | Product List | Glossary On
Versions: 1 2 3 4 5 6 7 8 9 10 11 12 13 14 15 16 17 18 19 20 21 22 23 24 25 26 27 28 29 30 31 32 33 34 35 36 37 38 39 40 41 42 43 44 45 46 47 48 49 50
000
ASUS43 KDTX 210510
RWRMI
MICHIGAN HOURLY REGIONAL WEATHER ROUNDUP
NATIONAL WEATHER SERVICE DETROIT/PONTIAC MI
100 AM EDT TUE OCT 21 2014

NOTE: "FAIR" INDICATES FEW OR NO CLOUDS BELOW 12,000 FEET WITH NO
SIGNIFICANT WEATHER AND/OR OBSTRUCTION TO VISIBILITY.

MIZ047>049-052>055-059>063-066>070-074>076-081>083-210600-
SOUTHEAST LOWER MICHIGAN

CITY           SKY/WX    TMP DP  RH WIND       PRES   REMARKS
ADRIAN         CLOUDY    50  45  83 N10       29.89S
ALMA           CLOUDY    48  43  81 NW9       29.92S
ANN ARBOR      CLOUDY    49  43  80 N8        29.88R
BAD AXE        CLOUDY    47  47  97 NW10      29.88R
DETROIT CITY   CLOUDY    52  45  77 N10       29.87S
DETROIT        CLOUDY    50  45  83 NW13      29.88R
FLINT          CLOUDY    50  44  80 NW6       29.90S
GROSSE ILE     PTCLDY    50  46  87 N8        29.86R
HILLSDALE      CLOUDY    49  46  87 NW10      29.90S
HOWELL         CLOUDY    47  43  84 NW8       29.89S

CITY           SKY/WX    TMP DP  RH WIND       PRES   REMARKS
JACKSON        CLOUDY    48  44  86 NW7       29.90S
LAMBERTVILLE   CLOUDY    50  46  87 N7        29.88S
LANSING        CLOUDY    48  43  82 NW8       29.92S
LAPEER         NOT AVBL
MASON          CLOUDY    48  43  84 NW8       29.90F
MONROE         CLOUDY    52  48  87 NW8       29.86S
MT. CLEMENS    CLOUDY    49  48  95 NW6       29.84S
PONTIAC        CLOUDY    48  44  86 NW8       29.87S
PORT HOPE        N/A     49  45  86 NW12G18   29.85S
PORT HURON     CLOUDY    48  46  93 CALM      29.86S
TRI CITIES     CLOUDY    50  43  77 NW10      29.91S
YPSILANTI      CLOUDY    53  45  74 N13       29.88S
$$
MIZ043>046-050>051-056>058-064>065-071>073-077>080-210600-
SOUTHWEST LOWER MICHIGAN

CITY           SKY/WX    TMP DP  RH WIND       PRES   REMARKS
BATTLE CREEK   CLOUDY    49  41  74 NW8       29.93S
BENTON HARBOR  LGT RAIN  47  45  93 VRB3      29.96F
BIG RAPIDS     CLOUDY    45  45 100 NW7       29.94S
COLDWATER      CLOUDY    49  44  82 NW8       29.92S
HOLLAND        CLOUDY    49  44  83 NW6       29.97S
GRAND RAPIDS   CLOUDY    48  44  86 NW13      29.94S
KALAMAZOO      CLOUDY    48  42  80 N9        29.94S
MARSHALL       CLOUDY    48  42  79 CALM      29.91S
MUSKEGON       CLOUDY    48  42  80 N13       29.98S
$$
MIZ016>042-210600-
NORTHERN LOWER MICHIGAN

CITY           SKY/WX    TMP DP  RH WIND       PRES   REMARKS
ALPENA         CLOUDY    45  42  89 N10       29.91R
BEAVER ISLAND  CLOUDY    47  43  87 N7        29.98S
BELLAIRE       LGT RAIN  46  44  93 N3        29.95S
CADILLAC       DRIZZLE   44  43  97 NW9       29.93S
CHARLEVOIX     CLOUDY    48  46  91 N12G17    29.98R
FRANKFORT      CLOUDY    47  42  83 N7        29.98S
GAYLORD        CLOUDY    44  42  93 MISG      29.92S FOG
GRAYLING       LGT RAIN  46  46  97 NW6       29.93S
HARBOR SPRINGS CLOUDY    46  43  88 N6        29.95S
HOUGHTON LAKE  CLOUDY    44  42  93 NW7       29.92S
MANISTEE       CLOUDY    46  41  81 N10       29.98S
OSCODA         DRIZZLE   46  45  98 NW8       29.88S
PELLSTON       CLOUDY    46  42  86 N9        29.96R
TRAVERSE CITY  LGT RAIN  47  43  86 NW8       29.95S
$$
MIZ007>008-015-210600-
EASTERN UPPER MICHIGAN

CITY           SKY/WX    TMP DP  RH WIND       PRES   REMARKS
KINROSS        CLOUDY    43  39  87 NE10      29.97S
MACKINAC ISLAN CLOUDY    45  39  78 N12G20    29.96R
NEWBERRY       CLOUDY    42  39  91 N7        29.99R
S. S. MARIE    CLOUDY    44  35  70 NE7       29.97S
$$
MIZ004>006-011>014-085-210600-
CENTRAL UPPER MICHIGAN

CITY           SKY/WX    TMP DP  RH WIND       PRES   REMARKS
MANISTIQUE     CLOUDY    43  42  95 N7        30.00S
ESCANABA       CLOUDY    43  37  81 NW10      30.03S
MENOMINEE      CLOUDY    45  36  70 N8        30.03S
SAWYER-GWINN   LGT RAIN  39  38  93 N16       30.05R
$$
MIZ001>003-009>011-084-210600-
WESTERN UPPER MICHIGAN

CITY           SKY/WX    TMP DP  RH WIND       PRES   REMARKS
IRON MOUNTAIN  CLOUDY    42  36  79 N10       30.05R
HOUGHTON       CLOUDY    40  34  79 NE10G17   30.10R
COPPER HARBOR    N/A     42  36  79 E9G23     30.12R
IRONWOOD       CLOUDY    43  37  81 NE3       30.10R
$$

ABBREVIATIONS USED IN REMARKS
   TC - TEMPERATURE IN CELSIUS
  WCI - WIND CHILL INDEX
   HX - HEAT INDEX
  VSB - VISIBILITY




USA.gov is the U.S. government's official web portal to all federal, state and local government web resources and services.